Skip Page Navigation
NASA JPL Caltech
NASA Logo - Jet Propulsion Laboratory + View the NASA Portal
+ Center for Near-Earth Object Studies
JPL Home Earth Solar System Stars & Galaxies Technology
JPL Solar System Dynamics
BODIES ORBITS EPHEMERIDES TOOLS PHYSICAL DATA DISCOVERY FAQ SITE MAP
JPL Small-Body Database Browser
Search: [ help ]  
115901 (2003 VK10)
Classification: Main-belt Asteroid          SPK-ID: 2115901
Ephemeris | Orbit Diagram | Orbital Elements | Mission Design | Physical Parameters | Discovery Circumstances | Close-Approach Data ]

[ show orbit diagram ]
Orbital Elements at Epoch 2459200.5 (2020-Dec-17.0) TDB
Reference: JPL 23 (heliocentric ecliptic J2000)
 Element Value Uncertainty (1-sigma)   Units 
e .2604775996466848 3.3012e-08  
a 3.090843414141124 1.7198e-08 au
q 2.28574794074188 1.0087e-07 au
i 12.66405641311304 6.9905e-06 deg
node 12.09764404642383 1.817e-05 deg
peri 92.94758261793747 2.3322e-05 deg
M 21.44675131829253 1.2715e-05 deg
tp 2459082.257678519196
(2020-Aug-20.75767852)
6.9729e-05 TDB
period 1984.78711770125
5.43
1.6565e-05
4.535e-08
d
yr
n .1813796536612684 1.5138e-09 deg/d
Q 3.895938887540368 2.1678e-08 au
  Orbit Determination Parameters
   # obs. used (total)      630  
   data-arc span      8103 days (22.18 yr)  
   first obs. used      1999-01-14  
   last obs. used      2021-03-22  
   planetary ephem.      DE441  
   SB-pert. ephem.      SB441-N16  
   condition code      0  
   norm. resid. RMS      .51434  
   source      ORB  
   producer      Otto Matic  
   solution date      2021-May-04 08:57:13  

Additional Information
 Earth MOID = 1.34364 au 
 Jupiter MOID = 1.5318 au 
 T_jup = 3.136 
[ show covariance matrix ]

Ephemeris | Orbit Diagram | Orbital Elements | Mission Design | Physical Parameters | Discovery Circumstances | Close-Approach Data ]

Physical Parameter Table
Parameter Symbol Value Units Sigma Reference Notes
absolute magnitude H 15.08   n/a MPCxxxxx  
diameter diameter 3.204 km 0.422 urn:nasa:pds:neowise_diameters_albedos::2.0[mainbelt] (http://adsabs.harvard.edu/abs/2011ApJ...741...68M)  
geometric albedo albedo 0.249   0.065 urn:nasa:pds:neowise_diameters_albedos::2.0[mainbelt] (http://adsabs.harvard.edu/abs/2011ApJ...741...68M)  

115901 (2003 VK10)          Discovered 2003-Nov-15 by NEAT at Palomar
Reference: 20051019/Numbers.arcLast Updated: 2005-10-26

[ show close-approach data ]
Alternate Designations
 2003 VK10 = 1999 CV90 
Ephemeris | Orbit Diagram | Orbital Elements | Mission Design | Physical Parameters | Discovery Circumstances | Close-Approach Data ]
ABOUT SSD CREDITS/AWARDS PRIVACY/COPYRIGHT GLOSSARY LINKS
FirstGov 2021-May-14 15:11 UT
(server date/time)  
NASA Home Page
Site Manager:   Ryan S. Park
Webmaster  Alan B. Chamberlin